Showing default

SHIYAN 6 (SY-6), 43711

Orbit data source: Space-Track

SHIYAN 6 (SY-6), 43711 is a payload satellite owned by CNSA (CN) in SSO that was launched on Mon, 19 Nov 2018 UTC via a CHANG ZHENG 2D launch vehicle from the Jiuquan Satellite Launch Center, China (JSC). Payloads include a variety of satellites, spacecraft, and rockets equipped with specific instruments for various scientific and technological missions. These include communications satellites like Starlink; space stations such as the ISS; scientific satellites like the Hubble; Earth observation satellites from companies like Planet Labs, Umbra, and HawkEye 360; GPS; miniature CubeSats for education and research; and military/defense satellites.

Loading next visibility...
SHIYAN 6 (SY-6) details
Identifier
43711, 2018-094B
Orbit
SSO
Last TLE update10 hours ago
Origin
Flag of CNCNSA (CN / PRC)
ManufacturerDFH Shenzhen
MissionOperational Defense Technology
Bus & MotorSW6, AOCS
Mass~1,000 kg wet, ~900 kg dry
Launch date (UTC)
2018-11-19 (6 years ago)
Launch vehicle
CHANG ZHENG 2D
Launch site
Jiuquan Satellite Launch Center, China (JSC)
Object type
Payload
Rocket body
Debris
Shape & HBRBox + 2 Pan, 4 m
Radar Cross Section3.315 m², Large (>1 m²)

Expand to show TLE details & history

TLE from 10 hours ago
0 SHIYAN 6 (SY-6)
1 43711U 18094B   24361.02833585  .00009428  00000-0  41263-3 0  9990
2 43711  97.3839  11.3378 0013165 248.0435 111.9403 15.22180030339402
Epoch: 2024-12-26T00:40Z
Definitive object data (Epoch: 2024-12-26T00:40:48.217Z)
Latitude0.00002°
Longitude-93.87672°
Altitude505.754 km
Speed7.609 km/s
True Right ascension00h 45m 21s
True Declination0° 00' 00"
Sunlit
Object was in daylight at TLE epoch
Visualization TLE readout
Latitude66.80204°
Longitude-110.97853°
Altitude519.87 km
Speed7.605 km/s
Apparent Right ascension22h 26m 32s
Apparent Declination16° 50' 02"
Sunlit
Object is in daylight
Visualization observer readout
Local Sidereal Time09:47:48
Azimuth348.992° N
Elevation-32.536°
Doppler factor1
Orbital elements
Apogee altitude505.278 km
Perigee altitude487.178 km
Semi-major axis6,874.365 km
Eccentricity0.0013165
Inclination97.3839°
RAAN11.3378°
Arg. of periapsis248.0435°
True anomaly112.08015°
Mean anomaly111.9403°
Eccentric anomaly112.01023°
Mean motion3.80798 °/min
BSTAR0.00041263
Orbital period94.54 mins
Loading maneuver chart data...
Loading historical data...
Loading historical data...
Loading historical data...
Loading historical data...
Loading historical data...
Loading historical data...
Loading historical data...

SHIYAN 6 (SY-6) Visibility forecast

Observer location: undefined°, undefined

Span
Click to sort rows by Start time (UTC) header in descending order
Start Az.
Max El. time (UTC)
Max El. Az.
Max El.
End time (UTC)
End Az.
6 mins2024-12-26 13:51:37.208Z8.917° NNE2024-12-26 13:54:37.208Z326.936° NNW44.029°2024-12-26 13:57:37.208Z197.746° SSW
5 mins2024-12-27 00:29:37.208Z128.133° SE2024-12-27 00:31:37.208Z75.576° E30.377°2024-12-27 00:34:37.208Z8.971° NNE
|